Location: ??
(35.4032°N, 139.3073°E)
Time: 07:23:36
(UTC+00:00)

Cosmos 2266 Rocket - Visible Passes

Search period start: 22 July 2024 00:00
Search period end: 01 August 2024 00:00
Orbit: 933 x 1007 km, 82.9° (Epoch: 22 July)

Date Brightness Start Highest point End Pass type
(mag) Time Alt. Az. Time Alt. Az. Time Alt. Az.
22 Jul 4.1 18:38:27 10° N 18:44:32 77° E 18:50:32 10° S visible
23 Jul 6.5 17:18:49 10° NNE 17:22:41 17° ENE 17:26:31 10° ESE visible
23 Jul 4.0 19:02:26 10° NNW 19:08:20 57° W 19:14:12 10° S visible
24 Jul 5.6 17:41:33 10° NNE 17:46:54 32° ENE 17:52:11 10° SE visible
25 Jul 4.5 18:04:57 10° N 18:10:56 60° E 18:16:51 10° SSE visible
26 Jul 6.6 16:46:15 10° NE 16:48:55 13° ENE 16:51:33 10° E visible
26 Jul 3.8 18:28:46 10° N 18:34:49 75° W 18:40:48 10° S visible
27 Jul 5.9 17:08:20 10° NNE 17:13:12 25° ENE 17:18:01 10° SE visible
27 Jul 4.4 18:52:59 10° NNW 18:58:32 39° W 19:04:04 10° SSW visible
28 Jul 4.9 17:31:31 10° N 17:37:18 46° E 17:43:02 10° SSE visible
28 Jul 5.2 19:17:46 10° NW 19:22:08 21° W 19:26:28 10° SW visible
29 Jul 3.9 17:55:10 10° N 18:01:14 85° E 18:07:16 10° S visible
30 Jul 6.1 16:35:18 10° NNE 16:39:28 19° ENE 16:43:37 10° ESE visible
30 Jul 4.1 18:19:13 10° NNW 18:25:02 52° W 18:30:04 14° SSW visible
31 Jul 5.2 16:58:10 10° NNE 17:03:38 35° ENE 17:08:19 13° SE visible
31 Jul 4.8 18:43:43 10° NNW 18:48:41 27° W 18:52:48 13° SW visible
